Location: ????????
(55.0808°N, 38.5463°E)
Time: 14:00:06
(UTC+00:00)

Cosmos 1943 Rocket - Pass Details

Date: 14 April 2024
Orbit: 810 x 845 km, 71.0° (Epoch: 17 May)

Event Time Altitude Azimuth Distance (km) Brightness Sun altitude
Rises 01:11:36 0° 324° (NW) 3,404 5.3 -10.2°
Reaches altitude 10° 01:14:09 10° 318° (NW) 2,470 4.5 -9.9°
Maximum altitude 01:19:28 44° 249° (WSW) 1,165 2.5 -9.2°
Drops below altitude 10° 01:24:47 10° 179° (S) 2,462 4.3 -8.6°
Sets 01:27:19 0° 173° (S) 3,393 5.1 -8.3°
